SL-16 DEB, 22456

Orbit data source: Space-Track

SL-16 DEB, 22456 is space debris in LEO originally from a launch on Fri, 25 Dec 1992 UTC launched from the Tyuratam Missile And Space Complex (TTMTR). Debris objects in space refer to the collection of defunct objects orbiting the Earth. Examples of debris include non-operational satellites, rocket bodies, and fragments generated from explosions, collisions, or faulty payload assembly.

Loading next visibility...
Identifier
22456, 1992-093EV
Orbit
LEO
Country
Flag of CISCIS
Related business
Manufacturer
Unknown
Mission
Spacecraft
Bus & Motor
Unknown
Mass
Unknown
Launch date (UTC)
1992-12-25 (33 years ago)
Launch vehicle
Unknown
Launch site
Tyuratam Missile And Space Complex (TTMTR)
Object type
Payload
Rocket body
Debris
Shape & HBR
Unknown shape, 0.1 m
Radar Cross Section
Small (<0.1 m²)

Expand to show TLE details & history
Last TLE update: 1 day ago

TLE from 1 day ago
0 SL-16 DEB
1 22456U 92093EV  26126.39091441  .00013648  00000-0  22590-2 0  9992
2 22456  71.2280 221.6093 0050682  29.0247  40.7086 14.69532938708683
Epoch: 2026-05-06T09:22Z
TLE epoch observation values (Epoch: 2026-05-06T09:22:55.005Z)
Latitude
63.02575°
Longitude
-101.75245°
Altitude
645.885 km
Speed
7.556 km/s
True Right ascension
17h 32m 54s
True Declination
62° 53' 03"
Sunlit
Object was in daylight at epoch
Visualization orbit readout
Latitude
Unknown
Longitude
Unknown
Altitude
Unknown
Speed
Unknown
Apparent Right ascension
Unknown
Apparent Declination
Unknown
Sunlit
N/A
Visualization observer readout
Local Sidereal Time
19:09:23
Azimuth
Unknown
Elevation
Unknown
Doppler factor
Unknown
Orbital elements
Apogee altitude
696.081 km
Perigee altitude
624.736 km
Semi-major axis
7,038.545 km
Eccentricity
0.00507
Inclination
71.228°
RAAN
221.6093°
Arg. of periapsis
29.0247°
True anomaly
41.08921°
Mean anomaly
40.7086°
Eccentric anomaly
40.89872°
Mean motion
3.67552 °/min
Orbital period
97.95 mins
BSTAR
0.002259
Loading maneuver chart data...
Computing Atmospheric mass density...
Loading historical data...
Loading historical data...
Loading historical data...
Loading historical data...
Loading historical data...
Loading historical data...
Loading historical data...

Documentation

Showing up to 5 results
|